Precipitable_Water
0.20 0.14 0.13 0.11 0.12 0.14 0.15 0.16 0.17 0.19 0.20 0.20 0.19 0.19 0.19 0.20 0.21 0.23 0.22 0.24 0.25 0.20 0.19 0.19 0.18 0.18 0.18 0.19 0.25 0.38 0.54 0.60 0.60 0.60 0.65 0.68 0.68 0.69 0.70 0.69 0.71 0.74 0.79 0.94 0.93 1.01 1.09 1.15 1.22 1.24 1.22 1.19 1.20 1.20 1.18 1.12 1.05 0.93 0.80 0.77 0.73 0.76 0.76 0.73 0.70 0.68 0.68 0.70 0.76 0.79 0.75 0.71 0.72 0.71 0.71 0.70 0.74 0.81 0.91 0.96 1.01 1.05 1.11 1.19 1.23 1.25
0.21 0.15 0.13 0.14 0.15 0.15 0.17 0.19 0.21 0.21 0.22 0.21 0.21 0.21 0.21 0.22 0.20 0.22 0.22 0.25 0.23 0.19 0.19 0.20 0.19 0.18 0.19 0.21 0.24 0.37 0.54 0.55 0.56 0.59 0.63 0.66 0.68 0.68 0.66 0.66 0.69 0.75 0.90 0.93 0.90 0.98 1.01 1.06 1.12 1.15 1.16 1.17 1.11 1.13 1.14 1.08 1.00 0.92 0.81 0.75 0.72 0.73 0.73 0.71 0.65 0.65 0.66 0.71 0.73 0.74 0.77 0.77 0.74 0.71 0.68 0.64 0.63 0.63 0.77 0.87 0.91 0.94 1.00 1.04 1.11 1.16
0.16 0.13 0.14 0.17 0.19 0.20 0.22 0.22 0.24 0.23 0.23 0.25 0.23 0.22 0.22 0.22 0.23 0.23 0.24 0.25 0.25 0.19 0.18 0.20 0.18 0.18 0.20 0.23 0.25 0.33 0.46 0.51 0.54 0.54 0.58 0.62 0.64 0.66 0.67 0.66 0.68 0.74 0.79 0.83 0.89 0.94 0.96 1.00 1.04 1.08 1.09 1.10 1.08 1.06 1.08 1.09 1.04 0.93 0.79 0.71 0.69 0.71 0.70 0.68 0.67 0.69 0.69 0.75 0.80 0.81 0.82 0.81 0.75 0.80 0.77 0.73 0.68 0.63 0.64 0.76 0.82 0.88 0.90 0.93 0.98 1.05
0.12 0.12 0.16 0.21 0.23 0.22 0.22 0.24 0.25 0.27 0.27 0.24 0.24 0.22 0.21 0.23 0.20 0.19 0.22 0.25 0.25 0.20 0.19 0.20 0.19 0.20 0.22 0.25 0.28 0.33 0.39 0.46 0.54 0.60 0.63 0.65 0.60 0.60 0.59 0.60 0.63 0.69 0.73 0.74 0.79 0.81 0.87 0.91 0.95 0.97 0.99 0.99 1.03 1.05 1.06 1.06 1.04 0.95 0.77 0.69 0.67 0.68 0.66 0.68 0.71 0.71 0.75 0.77 0.83 0.87 0.86 0.83 0.77 0.73 0.76 0.73 0.70 0.64 0.60 0.59 0.68 0.73 0.78 0.85 0.89 0.92
0.16 0.19 0.24 0.24 0.25 0.24 0.22 0.23 0.24 0.23 0.22 0.25 0.25 0.23 0.22 0.21 0.21 0.21 0.22 0.25 0.26 0.25 0.24 0.22 0.20 0.20 0.22 0.23 0.25 0.33 0.39 0.43 0.48 0.57 0.63 0.73 0.70 0.63 0.65 0.67 0.66 0.66 0.68 0.70 0.76 0.79 0.81 0.81 0.81 0.86 0.93 0.97 0.94 0.95 0.97 1.02 1.02 0.93 0.78 0.70 0.67 0.66 0.64 0.70 0.75 0.75 0.76 0.77 0.80 0.84 0.83 0.81 0.75 0.74 0.70 0.67 0.63 0.62 0.59 0.57 0.57 0.59 0.64 0.66 0.67 0.71
0.21 0.24 0.27 0.24 0.24 0.25 0.24 0.23 0.23 0.24 0.22 0.22 0.25 0.24 0.23 0.22 0.22 0.25 0.25 0.24 0.21 0.21 0.23 0.22 0.16 0.17 0.23 0.25 0.27 0.30 0.33 0.36 0.45 0.47 0.52 0.60 0.63 0.68 0.66 0.62 0.67 0.73 0.73 0.68 0.69 0.71 0.76 0.78 0.82 0.86 0.90 0.90 0.90 0.90 0.96 1.03 1.02 0.91 0.78 0.71 0.69 0.68 0.66 0.73 0.77 0.76 0.77 0.78 0.75 0.74 0.70 0.66 0.65 0.63 0.62 0.56 0.53 0.55 0.56 0.55 0.60 0.61 0.62 0.61 0.58 0.58
0.22 0.24 0.24 0.22 0.22 0.23 0.23 0.23 0.25 0.25 0.21 0.20 0.22 0.27 0.26 0.25 0.25 0.25 0.24 0.22 0.19 0.18 0.26 0.28 0.18 0.17 0.24 0.25 0.25 0.27 0.28 0.32 0.41 0.45 0.47 0.54 0.59 0.62 0.61 0.62 0.63 0.67 0.73 0.76 0.76 0.78 0.79 0.81 0.81 0.83 0.86 0.90 0.91 0.96 1.02 1.05 1.01 0.89 0.78 0.73 0.70 0.67 0.66 0.74 0.76 0.76 0.76 0.78 0.77 0.72 0.68 0.65 0.63 0.61 0.64 0.61 0.56 0.54 0.57 0.57 0.55 0.54 0.54 0.55 0.55 0.56
0.23 0.23 0.24 0.24 0.23 0.22 0.22 0.21 0.25 0.25 0.22 0.18 0.25 0.26 0.24 0.24 0.24 0.25 0.24 0.23 0.22 0.27 0.29 0.29 0.24 0.20 0.20 0.25 0.28 0.28 0.27 0.29 0.34 0.40 0.47 0.52 0.56 0.58 0.61 0.63 0.63 0.67 0.71 0.70 0.73 0.76 0.78 0.79 0.78 0.76 0.84 0.89 0.90 0.95 1.01 1.02 0.99 0.87 0.81 0.76 0.71 0.68 0.67 0.74 0.76 0.76 0.77 0.75 0.76 0.74 0.72 0.71 0.68 0.65 0.62 0.56 0.54 0.55 0.54 0.52 0.50 0.51 0.52 0.54 0.56 0.58
0.23 0.21 0.22 0.23 0.23 0.22 0.21 0.23 0.27 0.27 0.22 0.21 0.25 0.26 0.23 0.23 0.26 0.27 0.25 0.24 0.24 0.23 0.21 0.24 0.27 0.20 0.21 0.25 0.29 0.29 0.25 0.25 0.29 0.34 0.41 0.47 0.52 0.55 0.60 0.62 0.64 0.66 0.67 0.67 0.68 0.73 0.78 0.80 0.80 0.81 0.81 0.86 0.92 0.96 0.95 0.94 0.93 0.91 0.88 0.81 0.75 0.68 0.69 0.73 0.76 0.76 0.78 0.77 0.75 0.74 0.73 0.73 0.74 0.72 0.62 0.59 0.58 0.55 0.53 0.48 0.48 0.48 0.50 0.52 0.54 0.56
0.24 0.24 0.25 0.25 0.25 0.22 0.25 0.28 0.29 0.28 0.22 0.24 0.26 0.27 0.26 0.27 0.29 0.28 0.25 0.24 0.24 0.21 0.19 0.22 0.26 0.19 0.20 0.25 0.26 0.29 0.26 0.24 0.26 0.30 0.37 0.43 0.48 0.52 0.55 0.61 0.63 0.66 0.69 0.73 0.75 0.78 0.80 0.82 0.82 0.81 0.83 0.85 0.88 0.94 0.95 0.94 0.93 0.94 0.93 0.86 0.77 0.71 0.71 0.73 0.75 0.76 0.77 0.77 0.77 0.74 0.74 0.72 0.71 0.67 0.61 0.59 0.56 0.55 0.52 0.46 0.44 0.43 0.44 0.47 0.49 0.51
0.25 0.29 0.30 0.26 0.24 0.26 0.28 0.29 0.29 0.27 0.25 0.29 0.26 0.24 0.24 0.25 0.27 0.28 0.27 0.25 0.23 0.18 0.20 0.24 0.26 0.23 0.19 0.23 0.24 0.24 0.24 0.25 0.27 0.29 0.33 0.42 0.49 0.54 0.56 0.59 0.60 0.62 0.66 0.71 0.75 0.80 0.86 0.89 0.87 0.85 0.82 0.85 0.90 0.95 0.95 0.92 0.92 0.92 0.91 0.89 0.81 0.75 0.74 0.74 0.74 0.75 0.76 0.77 0.76 0.74 0.71 0.68 0.65 0.61 0.57 0.55 0.54 0.53 0.50 0.45 0.43 0.42 0.42 0.44 0.45 0.50
0.26 0.26 0.26 0.27 0.29 0.29 0.30 0.27 0.28 0.29 0.27 0.24 0.22 0.20 0.21 0.22 0.24 0.24 0.24 0.25 0.19 0.17 0.22 0.26 0.25 0.25 0.17 0.21 0.24 0.26 0.28 0.29 0.28 0.28 0.30 0.33 0.41 0.49 0.54 0.57 0.59 0.61 0.66 0.71 0.74 0.78 0.84 0.86 0.86 0.87 0.85 0.84 0.85 0.89 0.91 0.92 0.92 0.90 0.90 0.89 0.86 0.82 0.78 0.78 0.78 0.76 0.77 0.77 0.76 0.76 0.72 0.67 0.64 0.59 0.56 0.55 0.51 0.52 0.49 0.45 0.42 0.42 0.42 0.42 0.43 0.44
0.23 0.23 0.26 0.27 0.31 0.29 0.27 0.24 0.26 0.26 0.25 0.22 0.22 0.21 0.16 0.17 0.18 0.17 0.20 0.17 0.17 0.17 0.23 0.27 0.26 0.22 0.21 0.23 0.26 0.27 0.27 0.29 0.30 0.29 0.30 0.31 0.35 0.44 0.52 0.55 0.58 0.62 0.67 0.69 0.72 0.78 0.83 0.83 0.81 0.81 0.83 0.84 0.83 0.83 0.86 0.87 0.89 0.90 0.89 0.88 0.85 0.84 0.86 0.87 0.85 0.79 0.80 0.80 0.80 0.78 0.74 0.69 0.66 0.61 0.59 0.58 0.55 0.54 0.50 0.46 0.42 0.40 0.38 0.40 0.41 0.41
0.21 0.25 0.26 0.26 0.27 0.29 0.27 0.22 0.22 0.21 0.22 0.21 0.19 0.19 0.16 0.14 0.14 0.14 0.17 0.18 0.19 0.21 0.26 0.25 0.28 0.20 0.25 0.27 0.29 0.27 0.28 0.30 0.31 0.30 0.30 0.31 0.34 0.41 0.50 0.56 0.59 0.63 0.66 0.69 0.73 0.79 0.82 0.84 0.84 0.84 0.82 0.81 0.83 0.83 0.85 0.88 0.89 0.90 0.88 0.88 0.86 0.87 0.89 0.88 0.86 0.83 0.80 0.79 0.81 0.82 0.76 0.73 0.71 0.66 0.64 0.64 0.60 0.57 0.53 0.46 0.41 0.38 0.36 0.35 0.37 0.39
0.18 0.19 0.23 0.24 0.22 0.28 0.26 0.24 0.23 0.22 0.22 0.21 0.23 0.21 0.19 0.16 0.14 0.13 0.15 0.14 0.15 0.19 0.22 0.27 0.20 0.19 0.19 0.23 0.30 0.32 0.32 0.33 0.35 0.36 0.36 0.38 0.41 0.46 0.53 0.57 0.61 0.64 0.67 0.71 0.75 0.77 0.79 0.81 0.83 0.84 0.82 0.80 0.81 0.83 0.85 0.87 0.89 0.90 0.87 0.85 0.84 0.85 0.86 0.86 0.84 0.84 0.82 0.81 0.79 0.79 0.81 0.78 0.77 0.73 0.71 0.68 0.64 0.58 0.54 0.49 0.42 0.39 0.38 0.35 0.37 0.38
0.21 0.21 0.27 0.28 0.27 0.27 0.24 0.26 0.26 0.24 0.21 0.22 0.22 0.23 0.19 0.17 0.20 0.14 0.17 0.16 0.17 0.18 0.19 0.21 0.20 0.25 0.24 0.31 0.33 0.34 0.34 0.35 0.40 0.41 0.40 0.41 0.46 0.50 0.52 0.56 0.61 0.66 0.70 0.76 0.78 0.79 0.81 0.82 0.82 0.81 0.81 0.80 0.78 0.80 0.83 0.83 0.86 0.87 0.87 0.88 0.88 0.90 0.93 0.94 0.94 0.97 0.96 0.97 0.93 0.89 0.85 0.85 0.80 0.82 0.77 0.73 0.68 0.61 0.54 0.51 0.46 0.42 0.41 0.39 0.38 0.40
0.21 0.20 0.26 0.28 0.28 0.26 0.26 0.26 0.26 0.25 0.17 0.21 0.20 0.17 0.19 0.23 0.20 0.17 0.18 0.20 0.20 0.17 0.15 0.23 0.20 0.22 0.28 0.30 0.31 0.33 0.32 0.37 0.41 0.44 0.46 0.45 0.48 0.52 0.53 0.57 0.61 0.67 0.72 0.79 0.82 0.82 0.84 0.86 0.84 0.80 0.76 0.73 0.72 0.71 0.72 0.76 0.81 0.84 0.88 0.89 0.90 0.92 0.94 0.90 0.84 0.82 0.87 0.94 0.89 0.89 0.90 0.89 0.87 0.83 0.76 0.70 0.62 0.58 0.57 0.55 0.52 0.48 0.47 0.48 0.47 0.46
0.20 0.20 0.26 0.25 0.24 0.28 0.28 0.27 0.26 0.25 0.23 0.21 0.18 0.19 0.24 0.28 0.25 0.19 0.16 0.18 0.16 0.14 0.15 0.19 0.17 0.18 0.19 0.19 0.30 0.33 0.33 0.36 0.40 0.44 0.49 0.53 0.55 0.54 0.57 0.61 0.63 0.67 0.67 0.68 0.69 0.76 0.79 0.77 0.74 0.72 0.70 0.67 0.65 0.65 0.68 0.73 0.79 0.85 0.91 0.95 0.93 0.93 0.91 0.89 0.86 0.90 0.96 0.92 0.88 0.90 0.92 0.94 0.94 0.88 0.82 0.72 0.64 0.61 0.59 0.58 0.55 0.53 0.50 0.49 0.50 0.51
0.24 0.20 0.23 0.26 0.27 0.28 0.29 0.27 0.23 0.24 0.24 0.20 0.19 0.26 0.19 0.17 0.16 0.19 0.18 0.14 0.14 0.14 0.15 0.18 0.20 0.20 0.21 0.22 0.27 0.30 0.32 0.35 0.39 0.43 0.44 0.47 0.52 0.52 0.53 0.59 0.63 0.62 0.63 0.65 0.63 0.63 0.65 0.64 0.61 0.57 0.57 0.61 0.64 0.66 0.67 0.71 0.76 0.82 0.87 0.91 0.92 0.90 0.92 1.00 1.04 1.05 1.03 0.96 0.93 0.91 0.89 0.88 0.92 0.88 0.85 0.77 0.69 0.63 0.62 0.60 0.58 0.55 0.54 0.55 0.54 0.54
0.27 0.20 0.22 0.27 0.26 0.27 0.28 0.26 0.20 0.22 0.23 0.23 0.23 0.21 0.22 0.19 0.18 0.18 0.18 0.19 0.18 0.15 0.14 0.15 0.19 0.18 0.25 0.25 0.29 0.30 0.33 0.37 0.39 0.40 0.42 0.45 0.50 0.52 0.52 0.55 0.56 0.58 0.62 0.63 0.60 0.60 0.61 0.57 0.56 0.55 0.53 0.53 0.55 0.59 0.63 0.67 0.71 0.73 0.76 0.80 0.84 0.88 0.89 0.95 1.00 0.94 0.91 0.94 0.91 0.87 0.85 0.79 0.84 0.87 0.86 0.83 0.72 0.65 0.63 0.64 0.63 0.60 0.57 0.57 0.58 0.56
0.25 0.27 0.20 0.24 0.28 0.27 0.22 0.25 0.22 0.22 0.20 0.19 0.19 0.19 0.19 0.19 0.21 0.19 0.19 0.17 0.16 0.15 0.14 0.15 0.15 0.20 0.26 0.31 0.31 0.33 0.34 0.36 0.39 0.41 0.44 0.47 0.50 0.53 0.56 0.55 0.55 0.59 0.60 0.59 0.58 0.55 0.53 0.52 0.51 0.52 0.55 0.55 0.58 0.60 0.66 0.70 0.73 0.77 0.81 0.83 0.86 0.86 0.89 0.91 0.95 0.94 0.95 1.01 0.92 0.86 0.83 0.81 0.84 0.84 0.85 0.86 0.78 0.68 0.64 0.67 0.69 0.68 0.64 0.62 0.60 0.59
0.25 0.24 0.21 0.24 0.23 0.23 0.24 0.28 0.26 0.24 0.23 0.21 0.20 0.19 0.20 0.18 0.16 0.15 0.15 0.20 0.19 0.16 0.15 0.14 0.14 0.21 0.28 0.33 0.33 0.34 0.37 0.37 0.41 0.44 0.45 0.48 0.52 0.55 0.57 0.57 0.57 0.56 0.57 0.56 0.55 0.54 0.58 0.60 0.58 0.56 0.58 0.59 0.58 0.57 0.57 0.62 0.67 0.72 0.77 0.82 0.86 0.90 0.93 0.95 0.96 0.99 0.99 1.00 0.94 0.90 0.89 0.88 0.89 0.87 0.85 0.86 0.85 0.75 0.68 0.67 0.71 0.74 0.73 0.68 0.67 0.66
0.29 0.27 0.24 0.22 0.23 0.23 0.25 0.28 0.29 0.27 0.25 0.24 0.22 0.21 0.22 0.21 0.20 0.17 0.14 0.16 0.19 0.18 0.19 0.18 0.15 0.18 0.29 0.34 0.35 0.36 0.37 0.37 0.42 0.47 0.46 0.49 0.52 0.53 0.55 0.58 0.59 0.59 0.57 0.59 0.62 0.67 0.67 0.64 0.60 0.58 0.58 0.59 0.59 0.60 0.59 0.59 0.60 0.64 0.70 0.75 0.81 0.84 0.88 0.92 0.91 0.92 0.93 0.92 0.89 0.90 0.94 0.99 0.99 0.94 0.89 0.88 0.87 0.82 0.77 0.72 0.69 0.74 0.76 0.74 0.72 0.73
0.33 0.24 0.22 0.23 0.25 0.27 0.28 0.28 0.28 0.28 0.27 0.23 0.23 0.23 0.22 0.20 0.21 0.19 0.18 0.20 0.18 0.19 0.16 0.17 0.14 0.20 0.29 0.34 0.36 0.37 0.39 0.40 0.43 0.48 0.48 0.50 0.53 0.54 0.55 0.57 0.59 0.61 0.65 0.68 0.69 0.67 0.63 0.61 0.61 0.61 0.59 0.58 0.60 0.61 0.64 0.64 0.63 0.64 0.67 0.72 0.76 0.78 0.84 0.89 0.92 0.94 0.94 0.93 0.92 0.92 0.88 0.89 0.93 0.94 0.93 0.88 0.87 0.84 0.81 0.81 0.79 0.79 0.77 0.78 0.79 0.78
0.24 0.26 0.22 0.20 0.20 0.21 0.23 0.25 0.24 0.25 0.25 0.23 0.22 0.23 0.23 0.22 0.24 0.24 0.22 0.24 0.18 0.19 0.19 0.17 0.13 0.18 0.27 0.35 0.37 0.38 0.36 0.36 0.40 0.46 0.51 0.49 0.53 0.54 0.56 0.58 0.61 0.62 0.62 0.62 0.61 0.60 0.60 0.61 0.60 0.59 0.59 0.59 0.60 0.62 0.65 0.69 0.69 0.69 0.69 0.72 0.75 0.79 0.86 0.90 0.94 0.96 0.95 0.93 0.90 0.90 0.92 0.94 0.93 0.89 0.90 0.92 0.92 0.89 0.88 0.87 0.89 0.90 0.88 0.85 0.83 0.83
0.28 0.27 0.24 0.19 0.17 0.15 0.15 0.16 0.19 0.20 0.21 0.22 0.24 0.23 0.23 0.22 0.20 0.19 0.17 0.18 0.16 0.19 0.19 0.18 0.17 0.23 0.30 0.35 0.35 0.37 0.37 0.37 0.41 0.44 0.49 0.53 0.52 0.52 0.53 0.53 0.53 0.54 0.53 0.53 0.53 0.53 0.53 0.55 0.58 0.59 0.58 0.57 0.58 0.59 0.61 0.65 0.70 0.74 0.76 0.78 0.81 0.82 0.84 0.88 0.92 0.93 0.92 0.92 0.89 0.89 0.92 0.95 0.95 0.93 0.95 0.98 0.99 0.95 0.93 0.93 0.93 0.92 0.94 0.94 0.90 0.89
0.28 0.29 0.27 0.24 0.21 0.19 0.20 0.23 0.25 0.26 0.24 0.21 0.21 0.21 0.21 0.22 0.22 0.21 0.20 0.18 0.16 0.19 0.18 0.21 0.21 0.22 0.25 0.29 0.32 0.34 0.36 0.36 0.39 0.43 0.46 0.50 0.53 0.55 0.56 0.56 0.56 0.54 0.52 0.51 0.50 0.51 0.52 0.52 0.53 0.55 0.55 0.56 0.55 0.56 0.60 0.61 0.66 0.71 0.76 0.79 0.83 0.85 0.84 0.84 0.85 0.86 0.85 0.86 0.86 0.85 0.86 0.90 0.91 0.91 0.90 0.97 1.01 1.00 0.97 0.96 0.96 0.95 0.92 0.95 0.98 0.97
0.30 0.26 0.27 0.26 0.25 0.24 0.24 0.23 0.25 0.26 0.25 0.24 0.23 0.22 0.22 0.21 0.20 0.19 0.17 0.16 0.20 0.18 0.17 0.23 0.24 0.21 0.24 0.28 0.30 0.33 0.35 0.37 0.39 0.42 0.46 0.50 0.53 0.54 0.55 0.57 0.57 0.55 0.54 0.52 0.51 0.51 0.52 0.54 0.56 0.57 0.58 0.58 0.58 0.60 0.62 0.66 0.70 0.73 0.76 0.77 0.81 0.83 0.83 0.84 0.84 0.85 0.86 0.86 0.85 0.84 0.85 0.90 0.97 0.96 0.95 0.97 0.98 1.01 1.01 1.00 0.97 0.94 0.99 1.03 1.03 1.01
0.30 0.25 0.28 0.26 0.26 0.26 0.26 0.25 0.25 0.25 0.26 0.27 0.25 0.23 0.22 0.22 0.21 0.18 0.19 0.20 0.19 0.16 0.17 0.24 0.25 0.23 0.27 0.29 0.32 0.34 0.37 0.38 0.41 0.43 0.46 0.49 0.51 0.53 0.53 0.53 0.53 0.54 0.55 0.54 0.53 0.54 0.55 0.56 0.57 0.59 0.60 0.61 0.63 0.63 0.64 0.66 0.68 0.70 0.74 0.79 0.81 0.84 0.87 0.89 0.88 0.87 0.85 0.88 0.91 0.90 0.90 0.92 0.97 1.05 1.04 1.03 1.03 0.98 0.94 0.95 1.01 1.06 1.05 1.03 1.04 1.06
0.29 0.27 0.28 0.28 0.26 0.26 0.26 0.26 0.26 0.24 0.25 0.25 0.25 0.24 0.23 0.21 0.21 0.21 0.20 0.21 0.20 0.20 0.23 0.25 0.25 0.25 0.29 0.31 0.34 0.36 0.40 0.42 0.44 0.48 0.48 0.47 0.48 0.50 0.52 0.52 0.53 0.54 0.54 0.53 0.53 0.54 0.54 0.55 0.56 0.58 0.59 0.61 0.61 0.62 0.65 0.68 0.69 0.69 0.71 0.75 0.78 0.82 0.91 0.91 0.89 0.86 0.85 0.83 0.86 0.93 0.94 0.96 0.94 0.93 1.00 1.01 1.02 0.98 0.95 0.93 0.94 0.96 0.98 0.98 0.97 0.99
0.30 0.27 0.29 0.29 0.26 0.25 0.27 0.27 0.27 0.26 0.24 0.23 0.25 0.25 0.25 0.24 0.22 0.22 0.22 0.23 0.23 0.22 0.24 0.24 0.23 0.23 0.30 0.34 0.35 0.38 0.40 0.42 0.43 0.44 0.46 0.48 0.49 0.50 0.50 0.50 0.50 0.51 0.52 0.53 0.53 0.52 0.52 0.52 0.53 0.53 0.53 0.55 0.58 0.60 0.61 0.62 0.64 0.67 0.69 0.71 0.74 0.77 0.84 0.89 0.87 0.85 0.84 0.86 0.89 0.87 0.85 0.89 0.92 0.89 0.86 0.89 0.88 0.85 0.87 0.90 0.86 0.84 0.89 0.90 0.89 0.88
0.27 0.26 0.29 0.27 0.24 0.25 0.27 0.26 0.26 0.26 0.25 0.24 0.24 0.25 0.24 0.23 0.21 0.22 0.21 0.24 0.22 0.21 0.23 0.23 0.21 0.22 0.30 0.35 0.36 0.37 0.37 0.37 0.37 0.40 0.43 0.46 0.49 0.49 0.49 0.49 0.49 0.48 0.50 0.51 0.51 0.51 0.50 0.50 0.49 0.49 0.49 0.51 0.52 0.54 0.55 0.55 0.56 0.58 0.59 0.62 0.65 0.71 0.78 0.81 0.84 0.85 0.84 0.84 0.86 0.84 0.81 0.80 0.80 0.79 0.80 0.82 0.81 0.82 0.83 0.83 0.81 0.82 0.84 0.87 0.89 0.92
0.26 0.25 0.23 0.23 0.21 0.22 0.26 0.26 0.25 0.25 0.23 0.21 0.22 0.25 0.26 0.25 0.26 0.26 0.27 0.28 0.27 0.26 0.21 0.19 0.21 0.28 0.32 0.35 0.34 0.36 0.37 0.37 0.37 0.39 0.40 0.43 0.46 0.49 0.50 0.50 0.50 0.49 0.48 0.49 0.51 0.53 0.53 0.53 0.53 0.52 0.51 0.50 0.49 0.48 0.49 0.50 0.50 0.52 0.56 0.58 0.60 0.62 0.65 0.70 0.75 0.78 0.81 0.84 0.84 0.81 0.78 0.78 0.77 0.78 0.81 0.83 0.83 0.84 0.83 0.81 0.81 0.82 0.82 0.83 0.84 0.86
0.28 0.26 0.24 0.26 0.19 0.21 0.24 0.25 0.25 0.22 0.16 0.18 0.30 0.31 0.29 0.25 0.25 0.23 0.24 0.26 0.29 0.28 0.26 0.27 0.27 0.29 0.30 0.31 0.30 0.31 0.33 0.35 0.37 0.40 0.42 0.42 0.44 0.45 0.47 0.48 0.49 0.49 0.49 0.49 0.51 0.53 0.55 0.57 0.57 0.57 0.56 0.55 0.55 0.55 0.54 0.53 0.52 0.52 0.55 0.56 0.57 0.57 0.58 0.58 0.60 0.63 0.67 0.71 0.72 0.74 0.78 0.80 0.81 0.81 0.82 0.82 0.81 0.80 0.79 0.78 0.79 0.79 0.77 0.75 0.75 0.75
0.27 0.27 0.25 0.26 0.21 0.20 0.23 0.23 0.20 0.16 0.17 0.29 0.33 0.34 0.32 0.29 0.27 0.25 0.26 0.28 0.29 0.30 0.30 0.29 0.30 0.31 0.32 0.32 0.32 0.32 0.33 0.35 0.37 0.38 0.40 0.42 0.43 0.43 0.44 0.45 0.47 0.49 0.50 0.51 0.52 0.53 0.55 0.57 0.57 0.56 0.56 0.59 0.60 0.60 0.59 0.56 0.56 0.55 0.54 0.55 0.54 0.54 0.54 0.53 0.52 0.53 0.56 0.56 0.57 0.58 0.61 0.64 0.66 0.69 0.70 0.72 0.73 0.73 0.73 0.72 0.71 0.69 0.68 0.66 0.65 0.65
0.26 0.25 0.26 0.24 0.24 0.24 0.21 0.20 0.14 0.15 0.26 0.30 0.31 0.32 0.33 0.31 0.29 0.26 0.24 0.26 0.29 0.29 0.29 0.28 0.30 0.32 0.34 0.34 0.35 0.37 0.36 0.37 0.37 0.38 0.39 0.41 0.42 0.43 0.42 0.42 0.43 0.45 0.46 0.48 0.49 0.52 0.53 0.54 0.58 0.59 0.58 0.61 0.61 0.61 0.59 0.57 0.59 0.59 0.57 0.57 0.54 0.52 0.51 0.50 0.50 0.49 0.52 0.55 0.54 0.54 0.55 0.56 0.57 0.59 0.62 0.65 0.65 0.63 0.62 0.62 0.61 0.60 0.61 0.60 0.61 0.62
0.26 0.26 0.25 0.22 0.25 0.19 0.20 0.20 0.20 0.28 0.26 0.27 0.27 0.28 0.29 0.25 0.25 0.23 0.19 0.23 0.28 0.30 0.29 0.29 0.30 0.32 0.33 0.34 0.36 0.37 0.38 0.38 0.35 0.35 0.37 0.38 0.39 0.40 0.41 0.41 0.42 0.43 0.43 0.44 0.45 0.47 0.48 0.49 0.50 0.54 0.57 0.57 0.57 0.58 0.58 0.59 0.59 0.60 0.62 0.61 0.60 0.57 0.54 0.52 0.50 0.50 0.50 0.50 0.51 0.52 0.53 0.56 0.55 0.54 0.55 0.55 0.55 0.55 0.55 0.55 0.54 0.53 0.52 0.51 0.52 0.54
0.29 0.24 0.25 0.22 0.22 0.23 0.19 0.19 0.21 0.20 0.16 0.20 0.28 0.32 0.33 0.33 0.31 0.30 0.24 0.22 0.28 0.30 0.31 0.30 0.29 0.30 0.31 0.32 0.32 0.34 0.36 0.32 0.29 0.31 0.35 0.37 0.38 0.38 0.39 0.40 0.41 0.42 0.42 0.43 0.44 0.44 0.44 0.46 0.47 0.48 0.50 0.52 0.53 0.54 0.57 0.58 0.58 0.60 0.62 0.62 0.63 0.61 0.58 0.54 0.52 0.52 0.53 0.53 0.54 0.55 0.56 0.57 0.56 0.54 0.53 0.53 0.51 0.51 0.51 0.51 0.50 0.48 0.49 0.48 0.47 0.46
0.28 0.28 0.26 0.23 0.21 0.22 0.20 0.18 0.18 0.16 0.18 0.25 0.28 0.30 0.31 0.32 0.32 0.32 0.24 0.19 0.26 0.28 0.30 0.30 0.30 0.30 0.30 0.30 0.31 0.32 0.31 0.26 0.27 0.30 0.35 0.37 0.38 0.38 0.38 0.38 0.38 0.39 0.40 0.41 0.41 0.41 0.42 0.43 0.44 0.45 0.46 0.47 0.48 0.50 0.53 0.55 0.57 0.55 0.55 0.58 0.60 0.61 0.61 0.58 0.58 0.56 0.55 0.54 0.53 0.54 0.55 0.56 0.56 0.55 0.54 0.52 0.51 0.51 0.49 0.47 0.44 0.44 0.43 0.42 0.42 0.43
0.25 0.24 0.23 0.21 0.19 0.20 0.19 0.17 0.17 0.20 0.20 0.25 0.28 0.29 0.30 0.31 0.33 0.28 0.16 0.16 0.25 0.27 0.28 0.29 0.29 0.30 0.31 0.32 0.33 0.31 0.29 0.25 0.26 0.30 0.36 0.38 0.39 0.39 0.39 0.39 0.39 0.39 0.39 0.40 0.41 0.42 0.42 0.43 0.42 0.42 0.43 0.44 0.45 0.48 0.48 0.48 0.48 0.48 0.49 0.51 0.54 0.55 0.56 0.57 0.59 0.59 0.60 0.57 0.55 0.55 0.55 0.57 0.56 0.55 0.54 0.53 0.53 0.52 0.50 0.47 0.42 0.40 0.39 0.40 0.41 0.43
0.23 0.23 0.23 0.19 0.19 0.20 0.19 0.19 0.21 0.22 0.26 0.29 0.30 0.33 0.31 0.35 0.31 0.19 0.13 0.18 0.26 0.27 0.28 0.28 0.29 0.30 0.32 0.32 0.32 0.30 0.33 0.34 0.35 0.37 0.39 0.41 0.40 0.40 0.42 0.43 0.43 0.43 0.42 0.41 0.42 0.43 0.43 0.43 0.42 0.42 0.42 0.44 0.45 0.46 0.47 0.47 0.46 0.46 0.46 0.47 0.47 0.49 0.53 0.56 0.58 0.58 0.58 0.59 0.57 0.56 0.56 0.57 0.58 0.58 0.58 0.57 0.54 0.52 0.51 0.50 0.47 0.46 0.44 0.44 0.45 0.44
0.24 0.24 0.24 0.23 0.20 0.19 0.20 0.19 0.20 0.23 0.28 0.30 0.33 0.34 0.34 0.29 0.20 0.17 0.24 0.30 0.29 0.28 0.29 0.29 0.29 0.30 0.31 0.31 0.31 0.31 0.32 0.35 0.36 0.37 0.37 0.38 0.39 0.40 0.41 0.41 0.42 0.43 0.44 0.44 0.44 0.43 0.43 0.42 0.42 0.41 0.41 0.42 0.44 0.45 0.45 0.45 0.44 0.46 0.48 0.48 0.47 0.49 0.52 0.54 0.56 0.58 0.58 0.57 0.56 0.56 0.56 0.56 0.58 0.60 0.60 0.60 0.58 0.56 0.54 0.54 0.53 0.51 0.49 0.49 0.49 0.48
0.25 0.23 0.22 0.21 0.24 0.23 0.23 0.20 0.19 0.16 0.26 0.32 0.33 0.32 0.33 0.26 0.27 0.32 0.33 0.33 0.34 0.33 0.32 0.32 0.32 0.32 0.32 0.31 0.33 0.33 0.33 0.33 0.33 0.33 0.34 0.34 0.34 0.33 0.34 0.34 0.35 0.36 0.37 0.38 0.39 0.39 0.38 0.37 0.38 0.39 0.39 0.40 0.41 0.43 0.43 0.43 0.41 0.41 0.43 0.44 0.47 0.50 0.52 0.53 0.54 0.55 0.56 0.58 0.57 0.57 0.56 0.56 0.56 0.56 0.57 0.57 0.57 0.55 0.55 0.57 0.56 0.55 0.55 0.54 0.52 0.51
0.29 0.24 0.25 0.25 0.29 0.21 0.21 0.19 0.20 0.27 0.30 0.34 0.33 0.28 0.31 0.34 0.37 0.37 0.35 0.33 0.35 0.35 0.33 0.33 0.33 0.34 0.34 0.32 0.32 0.32 0.32 0.32 0.32 0.32 0.32 0.32 0.32 0.32 0.32 0.32 0.33 0.32 0.33 0.34 0.35 0.36 0.37 0.36 0.36 0.36 0.36 0.36 0.37 0.38 0.40 0.41 0.40 0.39 0.39 0.40 0.44 0.48 0.50 0.51 0.51 0.52 0.52 0.53 0.55 0.58 0.58 0.57 0.57 0.57 0.57 0.56 0.56 0.54 0.52 0.52 0.54 0.55 0.56 0.56 0.55 0.53
0.28 0.26 0.29 0.25 0.32 0.27 0.24 0.26 0.30 0.34 0.33 0.34 0.34 0.34 0.35 0.37 0.38 0.38 0.37 0.35 0.34 0.34 0.36 0.33 0.33 0.34 0.34 0.34 0.33 0.32 0.30 0.31 0.31 0.31 0.30 0.30 0.31 0.31 0.31 0.32 0.32 0.32 0.32 0.32 0.32 0.33 0.33 0.32 0.31 0.32 0.32 0.34 0.35 0.35 0.35 0.35 0.36 0.38 0.38 0.39 0.42 0.42 0.43 0.45 0.48 0.49 0.49 0.52 0.53 0.54 0.57 0.59 0.58 0.58 0.58 0.57 0.56 0.54 0.53 0.52 0.52 0.52 0.54 0.55 0.54 0.53
0.29 0.30 0.33 0.30 0.29 0.35 0.36 0.36 0.37 0.36 0.36 0.35 0.37 0.37 0.35 0.36 0.37 0.36 0.34 0.32 0.33 0.33 0.34 0.32 0.33 0.33 0.33 0.33 0.30 0.30 0.30 0.30 0.30 0.30 0.30 0.29 0.29 0.29 0.30 0.29 0.30 0.31 0.31 0.31 0.30 0.31 0.31 0.31 0.31 0.30 0.29 0.29 0.31 0.32 0.33 0.33 0.33 0.31 0.35 0.40 0.42 0.43 0.43 0.44 0.44 0.45 0.46 0.48 0.50 0.51 0.54 0.54 0.55 0.56 0.57 0.57 0.57 0.56 0.56 0.54 0.53 0.51 0.51 0.51 0.51 0.50
0.24 0.26 0.25 0.24 0.29 0.25 0.22 0.32 0.32 0.32 0.33 0.34 0.33 0.35 0.36 0.35 0.34 0.34 0.32 0.31 0.31 0.32 0.32 0.32 0.32 0.31 0.31 0.31 0.29 0.28 0.28 0.29 0.27 0.27 0.27 0.27 0.26 0.26 0.26 0.26 0.26 0.27 0.26 0.26 0.27 0.28 0.27 0.28 0.27 0.27 0.28 0.27 0.29 0.31 0.32 0.32 0.32 0.32 0.32 0.34 0.38 0.42 0.43 0.44 0.44 0.44 0.44 0.45 0.47 0.49 0.49 0.49 0.48 0.49 0.52 0.55 0.55 0.56 0.55 0.54 0.54 0.54 0.53 0.52 0.51 0.50
0.20 0.26 0.22 0.23 0.23 0.21 0.22 0.28 0.30 0.32 0.32 0.33 0.32 0.30 0.30 0.30 0.31 0.31 0.31 0.30 0.30 0.31 0.31 0.31 0.31 0.30 0.30 0.27 0.27 0.25 0.25 0.26 0.25 0.24 0.24 0.25 0.25 0.25 0.25 0.25 0.24 0.24 0.25 0.26 0.26 0.27 0.26 0.25 0.25 0.25 0.25 0.26 0.28 0.30 0.31 0.30 0.30 0.31 0.32 0.32 0.33 0.36 0.39 0.41 0.43 0.44 0.44 0.44 0.45 0.47 0.49 0.48 0.46 0.45 0.47 0.50 0.50 0.50 0.50 0.51 0.51 0.49 0.49 0.49 0.49 0.48
0.22 0.24 0.17 0.21 0.19 0.23 0.25 0.26 0.28 0.29 0.29 0.29 0.31 0.31 0.31 0.31 0.30 0.30 0.31 0.30 0.30 0.29 0.29 0.30 0.30 0.28 0.27 0.26 0.27 0.26 0.24 0.25 0.25 0.25 0.24 0.24 0.24 0.25 0.25 0.25 0.25 0.25 0.25 0.25 0.26 0.27 0.26 0.25 0.25 0.24 0.25 0.25 0.27 0.29 0.29 0.29 0.30 0.31 0.31 0.32 0.32 0.33 0.33 0.35 0.37 0.40 0.42 0.44 0.44 0.44 0.45 0.46 0.46 0.46 0.46 0.47 0.49 0.50 0.50 0.50 0.48 0.47 0.48 0.51 0.50 0.47
0.21 0.18 0.22 0.20 0.17 0.17 0.17 0.20 0.23 0.19 0.18 0.23 0.25 0.27 0.29 0.30 0.29 0.28 0.28 0.27 0.27 0.26 0.27 0.26 0.26 0.28 0.28 0.29 0.28 0.27 0.26 0.26 0.26 0.27 0.26 0.26 0.26 0.26 0.26 0.26 0.27 0.27 0.27 0.28 0.28 0.27 0.27 0.27 0.26 0.25 0.25 0.25 0.27 0.27 0.27 0.27 0.28 0.30 0.31 0.33 0.34 0.34 0.32 0.31 0.32 0.34 0.36 0.39 0.40 0.42 0.43 0.45 0.46 0.46 0.46 0.45 0.45 0.46 0.47 0.50 0.49 0.49 0.47 0.47 0.50 0.50
0.19 0.20 0.20 0.17 0.16 0.16 0.22 0.24 0.25 0.24 0.22 0.24 0.25 0.27 0.29 0.29 0.28 0.26 0.25 0.25 0.26 0.27 0.27 0.26 0.25 0.26 0.27 0.29 0.30 0.28 0.27 0.26 0.25 0.27 0.26 0.26 0.27 0.28 0.28 0.28 0.27 0.27 0.27 0.28 0.27 0.27 0.27 0.27 0.27 0.27 0.26 0.26 0.28 0.28 0.28 0.28 0.28 0.30 0.32 0.33 0.34 0.35 0.34 0.33 0.32 0.32 0.33 0.34 0.37 0.38 0.40 0.41 0.42 0.45 0.46 0.46 0.45 0.45 0.44 0.45 0.48 0.50 0.51 0.49 0.48 0.49
Wind_Speed
11 12 13 14 15 15 15 15 15 13 12 12 12 12 12 12 12 12 12 12 12 13 13 14 15 15 13 13 14 14 14 15 15 15 15 15 14 13 13 13 13 13 12 10 10 11 12 13 14 14 14 13 13 14 14 14 14 13 12 11 10 9 9 8 7 6 6 5 5 4 4 4 5 6 6 6 7 7 7 7 8 9 9 9 10 10
10 11 13 13 15 15 14 14 13 12 12 13 13 12 12 11 12 13 11 11 10 12 11 12 14 15 13 12 13 13 13 14 16 16 16 16 15 14 14 14 14 13 11 10 11 11 11 13 14 14 14 14 14 14 15 15 14 13 12 12 11 10 9 8 7 7 6 6 5 5 4 4 5 6 7 7 7 6 6 7 7 8 9 10 10 10
9 11 13 13 13 13 12 12 12 12 13 13 12 12 12 12 12 12 11 9 8 11 11 10 12 14 14 12 12 13 15 15 16 17 17 17 16 15 15 15 14 13 11 12 12 11 12 13 14 14 14 14 14 14 15 15 14 13 13 13 12 11 10 9 8 7 7 6 6 5 5 5 6 7 7 7 6 6 5 6 6 7 8 9 10 10
10 11 12 11 11 12 12 11 11 11 11 12 13 12 13 12 11 11 11 9 8 9 11 10 10 11 12 11 12 14 15 16 16 17 17 18 17 17 17 16 15 15 13 13 12 11 11 12 14 14 14 14 14 14 15 15 15 14 14 13 13 12 10 9 8 8 7 6 6 5 5 5 6 6 7 7 6 6 5 5 6 6 7 8 9 10
12 11 10 9 9 11 11 11 11 11 11 12 13 13 13 13 12 11 10 9 8 8 9 9 8 10 10 10 12 12 13 15 16 16 16 17 17 16 16 16 16 16 14 13 12 12 11 12 13 14 14 14 14 15 15 15 15 15 14 14 13 12 11 11 10 9 8 7 6 5 5 5 5 6 6 6 6 6 5 5 5 6 7 7 8 9
12 11 10 10 10 11 11 12 12 13 12 12 13 14 14 13 12 11 9 7 7 8 9 9 8 9 10 10 11 12 12 14 15 16 16 17 17 16 16 17 17 16 15 14 13 12 11 11 12 13 14 14 14 15 15 15 15 15 15 15 14 13 13 12 11 10 10 9 8 7 6 5 5 6 6 7 7 6 6 6 6 6 6 7 7 8
12 10 9 11 12 11 11 12 12 13 12 11 13 14 12 12 11 11 9 8 9 9 9 9 9 9 8 8 10 10 10 13 14 16 16 17 17 17 17 17 16 15 14 14 14 13 11 11 12 13 14 15 15 14 14 14 15 15 15 15 15 14 14 14 13 12 11 11 10 9 8 7 6 6 7 7 7 7 7 6 6 6 6 6 7 7
12 10 9 10 11 11 12 12 12 12 12 12 13 12 11 11 12 11 9 9 11 11 9 8 9 9 8 9 10 9 9 11 13 15 16 17 18 18 18 17 17 16 15 15 14 13 12 12 12 13 14 15 15 15 14 14 14 15 15 15 15 14 14 15 14 13 13 12 11 10 10 9 9 8 8 8 7 7 7 6 6 6 6 6 6 7
12 11 10 10 10 11 12 12 12 12 12 13 13 12 12 12 12 11 9 10 10 10 10 10 9 9 10 10 10 9 10 11 13 15 16 18 19 19 18 18 18 17 17 16 15 14 13 12 13 13 13 14 14 14 14 14 14 15 16 16 16 15 15 16 15 14 14 13 12 11 11 10 10 10 9 8 7 7 7 7 6 6 6 6 6 7
13 13 12 10 10 11 12 11 12 13 12 13 12 12 11 11 10 9 9 10 10 9 11 12 11 10 11 12 11 11 11 12 13 14 15 18 19 19 19 19 18 18 17 16 15 14 14 14 14 13 13 14 14 14 14 14 14 15 16 17 17 16 16 17 17 16 15 14 13 12 11 11 11 10 9 8 7 7 7 7 7 6 6 6 6 6
15 14 13 12 12 12 12 12 12 13 12 12 12 11 11 11 11 10 10 10 9 10 13 13 12 11 11 12 12 12 13 14 13 13 14 17 19 20 20 19 19 18 18 17 15 14 14 14 14 13 13 13 14 14 14 14 15 15 16 16 17 17 17 17 18 17 16 16 15 14 13 12 11 10 10 9 7 7 7 7 6 6 6 6 5 5
14 14 14 13 13 12 12 12 12 11 9 10 11 11 13 13 12 11 11 10 10 12 14 13 12 11 12 13 13 14 15 15 15 15 15 16 19 22 22 20 19 19 18 17 15 14 15 15 15 14 14 14 14 15 16 16 16 16 16 17 17 18 18 18 18 18 18 17 17 16 15 14 12 12 11 10 9 8 7 7 6 6 6 5 5 5
15 15 14 13 13 13 12 12 12 11 9 9 10 11 12 12 12 12 12 12 12 13 13 13 12 12 14 15 14 15 17 17 16 17 18 18 19 21 21 20 19 19 18 17 16 15 16 16 16 16 15 15 16 17 17 17 17 17 17 18 18 18 18 18 18 18 18 18 18 17 16 14 13 12 11 10 9 9 8 7 6 6 6 5 5 4
14 15 13 13 14 13 13 13 13 13 12 11 11 12 13 11 11 13 14 12 13 13 13 13 13 13 14 14 15 16 17 16 16 16 17 17 18 18 19 19 18 18 17 16 16 17 17 18 17 17 17 17 17 18 18 19 18 18 19 19 19 20 20 20 20 20 20 20 20 18 17 15 14 13 12 11 9 9 8 7 6 6 6 5 4 4
13 13 14 14 13 13 14 14 14 12 12 13 13 12 13 13 13 14 14 14 13 13 13 13 13 13 13 14 15 16 15 13 14 14 13 13 14 16 16 16 17 16 16 16 16 17 18 18 18 18 18 18 18 18 19 19 19 20 20 20 20 20 20 21 21 22 21 21 20 19 18 17 15 14 13 11 10 9 8 7 6 5 5 5 4 4
13 14 14 14 13 13 13 13 13 11 11 13 13 12 13 14 13 12 13 14 13 12 12 13 13 13 13 14 15 15 12 11 12 12 10 10 11 13 14 15 15 15 15 15 16 16 16 16 17 18 18 18 18 19 19 20 20 20 20 20 20 20 20 21 21 21 20 20 18 17 17 18 17 15 13 12 12 10 9 8 6 5 5 5 4 4
13 14 14 12 11 13 14 13 12 12 12 13 13 13 14 13 11 11 12 12 11 11 13 13 13 13 13 13 14 13 12 10 11 11 9 9 10 11 13 14 14 15 15 15 15 15 14 14 14 16 17 18 18 18 19 20 20 20 20 20 20 20 21 21 21 21 20 20 20 19 18 19 19 17 14 13 13 11 10 9 8 6 6 6 5 5
13 13 14 12 10 12 13 12 11 12 12 12 13 15 13 11 11 11 10 10 9 11 13 11 11 11 11 12 13 12 11 10 10 11 10 9 9 10 12 13 13 14 14 15 14 14 14 14 13 14 16 17 18 18 18 19 19 20 20 20 20 20 21 21 22 22 20 20 21 21 20 20 20 19 16 15 13 12 11 10 9 8 8 7 7 7
13 13 14 13 12 12 12 11 11 12 11 12 13 13 12 12 12 11 11 10 10 11 12 10 9 10 10 11 12 11 11 11 11 12 11 10 10 11 12 13 13 13 14 14 14 14 14 13 13 14 14 14 15 16 17 17 18 18 19 19 20 20 20 20 21 22 21 20 19 19 18 18 18 19 18 16 14 13 12 11 10 10 9 9 8 8
14 13 13 13 12 12 10 11 12 12 11 10 10 10 11 11 12 12 11 11 11 10 11 9 8 10 10 10 11 12 14 13 13 13 12 11 11 11 11 12 12 12 12 13 13 13 13 13 13 12 12 12 13 13 14 15 16 17 18 18 19 19 20 20 20 20 21 21 19 17 17 17 18 18 19 18 16 15 14 13 12 11 11 10 10 10
14 14 14 12 11 11 11 12 13 12 10 10 10 10 11 10 11 11 10 10 10 10 10 9 8 10 10 9 10 13 15 14 14 13 12 12 11 11 10 10 10 11 11 12 12 12 12 12 12 11 11 11 11 11 12 12 13 15 16 17 17 18 19 20 20 20 20 20 19 19 19 19 19 19 19 19 18 16 15 15 14 13 13 12 12 12
15 15 14 12 10 11 12 12 12 12 11 11 10 10 11 12 11 11 10 10 10 9 10 9 9 10 10 9 9 11 13 15 15 14 13 12 11 11 10 10 10 10 11 11 12 12 13 13 12 11 11 10 10 10 11 11 12 13 14 15 16 17 18 19 19 19 19 18 19 19 19 19 19 20 20 20 19 18 17 16 16 15 15 14 13 13
15 14 13 13 11 12 12 11 10 11 10 10 10 10 11 12 12 11 12 12 10 10 10 9 8 10 10 8 8 9 10 11 13 14 13 12 12 12 12 11 11 11 11 11 12 13 13 13 12 11 11 11 11 11 11 12 12 13 13 14 15 16 17 17 17 18 18 18 17 18 18 19 20 20 21 21 21 20 19 18 17 17 17 16 16 15
14 13 13 13 12 12 12 12 11 12 11 10 10 11 10 11 12 12 13 13 11 11 11 9 9 11 10 8 8 8 7 7 8 11 12 12 13 13 12 12 11 11 11 12 12 13 13 12 12 12 12 12 12 13 13 13 14 14 14 14 15 16 16 17 17 17 18 18 17 17 18 20 21 21 22 22 22 21 20 20 19 19 18 18 18 17
14 14 14 13 12 12 13 13 13 13 12 12 11 11 11 10 10 11 11 11 10 12 12 10 11 12 11 9 9 8 7 6 7 9 11 12 13 13 13 13 13 13 13 13 13 13 12 13 13 13 13 13 14 14 15 15 15 16 15 15 15 16 17 17 17 18 18 18 18 18 19 20 21 22 22 22 22 22 21 21 20 20 20 20 20 19
15 15 15 15 15 15 15 16 16 15 13 13 12 12 11 10 10 11 11 11 11 12 12 12 13 13 12 10 10 9 9 8 8 8 10 11 13 14 15 15 15 14 14 14 14 14 13 13 13 14 14 14 14 15 15 16 16 16 16 16 16 16 17 18 18 18 18 19 19 19 18 19 20 22 22 21 21 22 22 22 21 21 22 22 22 21
14 14 15 15 16 17 16 16 17 16 14 13 13 12 12 12 11 10 11 11 12 12 11 13 14 13 12 12 11 11 10 10 10 10 9 11 13 14 15 15 15 15 15 15 15 14 14 14 14 14 14 15 15 15 15 16 16 16 16 16 17 17 17 17 17 18 18 19 19 18 18 18 19 21 22 22 21 22 22 22 22 22 23 24 23 23
14 14 15 14 13 15 16 15 14 14 14 15 14 14 14 13 12 11 12 12 13 12 12 14 14 13 13 14 13 13 13 13 13 12 11 11 12 13 15 15 15 15 16 16 15 15 15 15 16 16 16 16 17 16 16 16 16 16 17 17 18 18 18 17 17 17 17 18 19 19 18 18 18 20 22 21 21 20 20 20 20 21 22 23 24 24
15 15 16 14 13 14 14 14 13 12 14 15 15 15 14 14 13 12 14 14 13 13 15 15 14 14 15 15 15 15 15 15 14 13 12 12 12 13 14 14 15 16 16 16 17 17 17 17 18 18 18 18 19 19 18 17 17 17 17 18 18 18 17 17 17 17 17 17 18 19 19 18 17 18 20 20 19 19 20 20 20 21 21 22 24 25
16 16 16 15 14 14 14 15 15 14 14 14 14 15 14 13 13 14 14 14 12 13 15 14 13 14 16 17 16 16 17 16 15 13 12 13 13 14 13 14 15 15 16 17 18 18 19 19 19 19 19 20 20 20 20 19 19 19 19 18 18 18 19 19 18 18 18 18 18 18 18 19 19 20 21 22 21 21 22 22 21 21 20 20 21 23
17 17 17 16 15 16 16 15 15 14 14 14 13 15 16 14 14 15 16 15 14 14 16 15 14 15 17 17 17 17 17 15 13 13 14 14 14 14 14 15 15 16 17 18 19 19 20 20 20 21 21 21 21 21 21 21 21 21 21 20 20 20 20 21 20 20 20 20 19 19 19 19 21 22 23 24 24 23 22 22 21 21 21 20 20 21
17 17 17 16 16 18 17 16 15 14 13 13 14 16 16 15 15 16 17 17 17 17 17 16 16 18 19 19 18 17 15 14 14 15 15 16 16 15 15 16 17 17 18 19 19 20 21 21 22 22 22 22 22 22 22 23 23 23 23 22 22 21 22 22 23 22 22 22 21 21 21 21 21 22 22 23 24 23 22 22 22 23 23 23 22 23
16 16 17 16 17 18 17 16 16 14 13 15 17 17 16 16 16 16 15 16 17 18 18 19 19 21 21 20 19 18 17 16 16 17 17 17 17 16 16 17 18 19 20 20 21 21 21 22 22 22 23 23 23 23 24 24 24 24 24 24 23 22 22 22 23 23 23 23 23 23 23 23 23 23 23 23 24 24 23 23 23 24 24 24 24 24
17 16 17 17 17 18 19 17 15 16 16 18 18 17 17 16 15 14 15 16 17 17 18 19 20 20 20 20 20 19 19 19 18 18 18 18 17 17 17 18 18 19 20 21 22 22 22 23 23 23 23 23 23 24 24 24 24 25 25 24 23 23 22 23 23 24 24 25 25 26 26 25 24 24 24 24 24 23 23 23 23 23 23 23 23 24
18 18 18 18 17 18 19 17 17 19 19 18 18 17 17 17 15 13 15 17 17 17 18 18 19 20 21 21 21 20 19 19 19 19 18 18 18 18 18 19 19 19 20 21 21 22 23 24 24 24 23 23 24 24 25 25 25 25 26 26 26 25 25 25 26 26 26 27 27 27 26 25 24 24 24 24 23 23 23 23 22 23 23 23 22 22
19 19 19 19 18 19 19 18 19 20 19 19 19 19 20 20 18 15 16 18 19 19 19 19 20 21 21 21 22 22 21 20 19 19 19 20 20 20 20 20 21 21 22 22 23 23 24 24 24 25 25 25 25 25 26 26 26 26 26 26 27 27 27 27 27 27 27 28 27 27 26 25 24 24 24 24 23 23 23 23 23 22 22 22 22 22
19 19 20 19 20 20 18 18 18 19 20 21 22 22 22 22 21 19 19 20 20 20 20 20 20 21 21 21 22 23 23 22 21 21 22 22 22 22 23 23 23 24 24 25 25 25 25 25 25 26 27 27 27 27 27 27 26 26 25 24 24 25 26 26 27 27 28 28 28 27 26 26 25 25 24 24 24 24 24 24 24 23 23 23 22 22
19 20 21 20 20 20 18 17 18 20 22 24 24 23 23 23 23 21 20 20 21 21 21 20 20 21 21 21 22 23 23 22 23 24 25 24 25 25 26 26 26 26 26 26 27 27 27 27 27 27 28 28 29 29 29 28 27 26 25 24 24 24 24 24 25 25 26 27 28 27 27 26 26 26 26 26 26 26 26 26 25 25 25 24 24 24
20 21 21 20 21 20 19 19 20 21 22 23 24 24 23 23 23 21 20 22 23 23 22 21 20 20 21 21 22 22 22 24 25 26 26 26 27 27 27 28 28 28 28 28 28 28 29 29 29 29 28 28 29 29 29 29 29 29 29 29 28 27 25 24 23 23 23 25 27 28 28 28 28 28 28 28 27 27 26 26 26 26 25 25 25 25
20 21 21 21 22 22 21 20 20 21 21 22 23 23 23 22 21 20 21 24 24 23 22 21 19 20 20 20 21 21 22 24 26 27 27 27 28 28 28 28 28 29 29 29 30 30 30 31 31 31 31 30 30 30 30 30 31 31 32 32 32 31 30 28 27 26 26 25 26 27 28 29 29 29 29 28 28 27 27 26 26 26 26 26 26 25
19 20 21 21 22 22 21 20 20 21 22 22 23 22 21 20 21 21 23 24 23 22 22 20 20 20 21 20 21 22 23 24 25 26 27 27 28 28 28 29 29 30 30 31 31 32 32 32 32 32 32 32 32 32 32 31 31 32 32 33 33 34 33 32 32 31 30 29 28 27 28 29 29 29 29 29 28 28 28 27 27 27 27 27 26 26
19 19 19 19 20 20 20 20 19 20 21 21 22 21 20 20 22 23 23 22 21 21 21 20 20 21 21 22 22 24 25 26 27 28 29 29 30 31 31 32 32 32 33 33 33 34 34 34 34 34 34 34 34 34 34 33 33 33 33 33 34 34 35 34 34 34 33 33 32 30 29 29 30 30 30 30 29 29 29 28 28 28 27 27 27 27
18 18 18 18 19 19 19 19 19 20 21 21 21 21 20 20 22 21 20 20 20 20 21 21 22 22 22 23 24 26 27 28 29 30 31 32 33 33 34 35 35 36 36 36 36 36 37 37 37 36 36 36 36 36 36 36 36 36 36 35 35 35 35 35 35 35 35 35 35 34 33 32 31 31 31 31 30 29 29 29 29 28 28 28 28 28
17 17 17 18 19 19 19 19 19 20 21 20 19 19 19 19 20 20 19 20 20 20 21 22 22 23 23 24 25 27 28 29 30 30 31 32 33 34 35 36 37 38 38 39 39 39 39 40 40 40 39 39 39 39 39 39 39 39 38 38 38 37 36 36 36 36 37 37 38 37 36 35 34 33 32 31 31 30 30 29 29 29 29 29 29 30
16 16 16 16 16 17 17 17 18 18 18 16 15 16 17 17 18 18 19 19 20 21 21 22 23 24 25 25 27 28 29 30 31 32 33 34 34 35 36 37 38 38 39 40 40 41 41 42 42 43 43 42 42 42 42 42 42 42 41 40 40 40 40 40 39 38 38 38 39 39 39 39 39 38 37 36 35 34 33 32 32 31 31 31 32 32
14 14 14 14 14 14 14 15 15 15 15 15 15 15 16 17 17 18 19 20 21 22 23 23 24 26 27 27 28 29 30 32 33 33 34 35 35 36 37 38 39 39 40 41 41 42 42 43 44 44 44 44 44 44 44 44 44 45 44 43 42 42 42 42 42 41 41 40 40 40 41 41 41 41 42 41 41 39 38 37 36 35 35 35 34 34
14 13 13 13 15 15 15 16 16 16 15 15 16 16 17 18 19 20 20 21 23 23 24 25 26 27 28 29 30 31 32 33 33 34 35 35 36 37 37 38 39 40 41 41 42 42 43 43 44 44 45 45 45 44 44 45 45 46 46 46 45 45 44 44 44 43 43 43 42 42 42 42 42 42 42 42 42 42 40 39 38 38 37 37 36 36
13 13 13 13 14 16 16 17 18 17 17 18 18 18 19 20 21 22 22 23 24 24 26 27 28 29 30 31 31 32 32 32 33 33 34 35 35 36 37 38 40 40 41 41 42 42 43 43 44 44 45 45 45 44 45 45 45 45 46 46 46 46 47 46 46 45 45 44 44 43 43 44 44 44 43 42 41 41 41 41 40 39 39 39 38 37
12 12 13 13 13 14 16 17 17 18 19 20 20 21 22 22 23 23 24 24 25 26 27 28 28 29 29 30 30 30 30 31 32 32 33 34 35 36 37 38 39 39 40 40 41 41 42 42 43 43 44 44 44 44 45 45 45 45 45 45 45 46 47 48 48 48 47 46 45 44 44 43 43 44 44 43 42 42 42 41 41 41 40 39 39 38
11 11 12 11 12 14 15 16 16 17 19 20 20 21 22 22 22 23 24 25 26 26 27 27 27 27 27 27 27 27 29 30 30 31 32 33 34 35 36 37 37 38 39 40 40 41 41 42 42 43 43 43 43 43 44 44 44 43 43 43 43 44 45 46 47 47 48 47 46 46 45 44 43 42 42 43 43 43 42 42 41 41 40 39 39 38
9 11 11 11 12 14 15 15 15 16 17 18 18 20 21 21 21 22 23 24 24 24 24 24 24 24 25 25 26 27 28 29 29 30 31 32 33 34 35 36 37 38 39 39 40 41 41 42 42 42 43 43 42 42 43 43 42 42 42 42 42 42 43 43 44 45 46 46 46 46 45 44 43 42 41 41 42 42 42 41 41 40 39 38 38 37
Wind_Direction
221 227 233 229 226 223 221 217 218 223 222 227 235 236 241 245 252 252 246 252 243 230 232 222 222 232 230 229 228 222 220 215 212 213 213 215 219 220 220 224 226 223 221 221 221 220 221 222 220 220 221 219 217 215 217 219 220 222 223 223 225 228 229 229 230 231 239 247 257 273 290 311 322 325 324 316 307 297 285 273 261 252 248 247 243 240
221 224 229 224 218 215 216 217 220 225 225 230 234 235 240 242 251 252 247 260 241 220 233 223 217 231 230 230 234 219 211 217 215 213 215 217 221 223 222 225 225 223 221 220 222 223 223 222 220 219 219 215 213 216 219 220 220 223 226 226 226 228 228 230 231 230 240 250 260 273 286 305 318 323 327 325 317 305 291 279 269 259 252 247 244 242
227 225 225 217 210 212 217 215 217 226 227 228 228 229 238 243 253 254 247 260 244 220 229 217 209 228 230 233 241 225 213 219 221 217 215 214 217 221 223 225 224 223 223 221 223 226 226 223 220 219 220 217 217 220 222 222 223 226 227 226 226 227 229 233 233 231 240 252 262 274 285 300 314 321 325 329 329 320 299 282 273 264 255 249 245 244
222 218 212 204 199 210 223 220 215 227 230 227 226 229 240 246 249 248 248 257 243 222 219 209 211 232 236 233 234 229 224 225 226 225 221 217 216 219 221 221 221 222 223 223 224 227 226 223 220 219 219 219 218 219 222 224 226 227 225 223 224 227 230 232 232 232 238 248 258 268 281 297 312 321 324 328 333 330 313 291 277 268 258 251 247 245
215 213 207 203 201 208 224 230 223 226 232 232 229 229 237 243 238 235 246 253 237 224 215 209 220 235 240 238 233 232 232 229 227 225 224 222 222 224 223 220 220 222 222 222 223 225 225 223 219 218 218 218 219 220 222 226 227 227 223 221 222 226 229 230 230 229 233 240 247 257 270 286 304 318 323 326 328 326 317 300 285 275 264 254 249 246
219 220 218 222 221 215 224 233 225 218 227 237 233 230 232 234 235 237 244 241 225 227 223 214 221 233 235 233 232 235 232 229 230 227 222 221 224 226 224 221 221 223 224 223 222 223 224 222 219 219 219 219 221 222 223 226 228 226 222 220 223 227 228 231 232 230 232 236 241 251 261 272 288 305 317 322 321 318 311 299 288 280 272 263 256 250
224 228 225 229 230 222 225 233 227 215 219 233 231 227 229 227 232 240 237 223 216 222 226 216 210 222 230 222 229 239 230 227 233 231 226 224 224 226 224 222 221 223 225 225 225 223 221 222 221 221 220 219 220 222 224 227 230 226 223 223 225 227 230 232 234 233 232 235 240 250 259 267 279 293 308 315 317 314 308 299 288 282 278 271 264 256
226 237 236 234 231 223 225 231 226 213 214 231 230 223 226 227 232 235 224 216 220 223 230 227 208 211 225 225 236 245 229 228 234 232 233 230 227 227 226 225 222 221 223 223 223 222 221 224 223 219 218 219 220 222 225 228 230 227 225 225 227 229 231 233 234 233 232 234 240 248 256 265 274 285 298 304 309 313 309 301 291 283 279 275 270 263
227 236 240 234 231 226 226 228 221 214 222 235 231 224 227 226 226 228 219 220 228 225 232 238 224 218 228 231 242 247 234 237 239 233 234 233 229 228 227 225 224 223 223 222 222 221 223 224 220 216 215 217 218 220 223 226 227 229 229 229 229 231 233 234 235 234 233 234 239 247 255 262 270 279 287 289 296 306 307 303 296 285 277 274 272 266
232 234 235 230 230 230 228 229 220 216 230 238 229 228 232 226 223 226 222 223 230 228 232 240 235 227 234 240 243 245 241 243 246 241 237 235 232 229 226 225 225 225 225 225 225 225 227 226 220 218 216 216 219 221 223 225 226 229 232 233 232 233 235 235 236 236 235 234 238 246 253 257 263 270 274 276 286 297 300 300 295 286 277 272 269 263
240 239 236 232 231 229 228 229 224 221 230 236 231 231 231 230 231 232 230 225 229 236 236 240 236 227 237 244 238 239 242 242 246 250 243 237 234 230 227 226 226 227 226 226 226 227 231 229 224 221 219 220 222 224 226 228 229 231 234 236 235 235 236 236 237 237 236 235 238 245 250 254 256 260 262 265 273 283 290 293 289 282 275 268 262 253
244 241 240 240 234 227 226 229 230 234 237 234 232 226 221 228 232 232 237 230 228 237 238 238 235 227 234 241 238 241 246 244 243 245 243 237 233 230 229 228 226 226 227 226 226 228 230 231 227 224 224 224 225 226 229 231 233 235 237 238 237 237 238 238 238 238 237 237 239 243 249 252 253 255 258 260 264 271 278 283 282 275 267 260 252 243
240 237 241 246 237 224 222 229 233 242 246 235 228 218 215 225 228 229 236 234 231 236 237 237 237 236 241 243 243 246 251 252 247 245 244 240 233 229 226 225 224 225 227 226 226 228 230 231 230 228 228 229 230 230 232 233 235 238 240 240 240 240 241 240 239 238 238 239 239 243 248 249 249 252 257 259 260 264 270 274 273 266 256 246 239 236
238 242 244 242 239 230 222 226 233 239 240 231 223 217 215 219 223 228 233 235 237 237 236 241 243 245 249 250 248 248 252 257 255 250 247 241 232 225 222 220 222 224 226 227 227 229 232 233 233 234 234 235 235 235 236 237 238 240 243 243 242 243 243 241 240 240 240 240 240 243 245 243 244 249 255 258 259 262 266 269 267 261 252 238 227 225
227 238 239 232 236 235 227 227 228 229 233 230 222 217 219 219 220 228 230 231 235 237 240 246 247 244 246 253 255 253 255 261 260 254 247 236 224 216 215 217 219 223 227 229 230 232 234 235 236 237 238 239 240 241 241 241 241 242 244 244 244 244 244 243 243 241 241 240 240 242 242 239 242 247 251 254 257 261 262 259 256 253 244 228 216 212
223 232 238 236 236 232 230 232 227 224 232 232 223 218 225 225 222 228 230 228 231 237 243 246 247 247 248 257 264 261 259 263 262 256 241 222 214 210 212 215 217 220 225 228 231 233 235 236 237 239 241 243 245 245 244 244 244 244 244 245 244 245 245 245 246 245 243 240 239 242 241 239 240 243 245 249 253 254 251 245 241 238 231 220 212 206
226 232 239 242 239 230 227 229 229 228 231 232 226 222 227 226 220 224 232 237 236 237 244 247 251 258 257 259 267 268 263 257 252 248 236 219 210 206 209 212 214 216 218 223 228 232 235 236 239 243 247 250 250 249 248 247 247 247 246 245 244 245 245 244 243 244 244 243 242 243 245 243 238 236 239 244 245 243 236 234 235 232 228 224 217 211
222 230 238 236 235 236 229 220 226 231 226 227 228 225 226 230 228 226 232 244 243 238 246 252 254 259 257 254 261 265 257 245 234 229 226 220 212 205 206 209 211 214 217 223 228 233 238 240 243 249 253 255 254 253 252 252 251 250 248 246 245 245 246 246 243 240 241 245 244 245 249 246 236 231 234 238 237 233 227 230 235 232 229 226 220 216
221 228 240 234 230 240 234 216 225 237 228 223 227 225 225 229 230 229 230 235 236 236 246 252 251 251 251 252 254 252 245 239 233 229 227 225 223 218 212 211 215 219 223 228 233 236 239 242 247 252 256 257 256 255 255 255 254 252 249 247 246 246 247 250 248 244 243 244 244 245 247 242 232 230 232 232 231 230 227 230 234 232 230 227 224 221
222 224 235 235 229 233 232 219 223 236 236 228 227 229 230 226 223 225 229 229 227 230 237 244 249 250 248 248 247 243 242 238 234 236 237 233 231 226 217 214 219 225 229 233 235 236 239 245 251 255 257 257 257 256 255 254 254 252 249 247 245 244 246 247 247 245 243 241 241 244 242 237 233 232 231 228 229 233 233 233 234 234 232 229 226 225
224 222 227 235 233 227 225 220 218 224 230 227 224 230 235 229 222 224 231 233 226 224 229 232 242 250 248 245 243 241 243 240 232 232 237 235 232 230 227 224 224 225 228 234 236 238 244 251 255 256 258 258 258 258 256 255 254 252 251 248 245 245 245 245 244 243 242 241 242 243 240 237 236 233 231 229 230 235 237 236 237 237 236 233 230 229
223 222 222 229 231 222 220 223 222 222 222 218 219 226 227 223 218 220 232 238 230 226 227 224 233 248 251 250 250 246 243 239 230 224 227 229 225 227 233 236 233 229 231 236 239 243 248 251 252 254 259 262 262 261 258 256 255 254 253 252 250 248 247 248 247 244 243 246 247 244 240 239 238 234 232 232 231 233 236 237 238 238 238 237 235 234
221 220 220 224 226 222 224 228 224 219 217 216 221 224 223 225 224 221 228 233 230 230 229 224 231 244 249 253 254 252 247 238 226 219 220 224 224 227 234 239 239 235 235 238 240 243 247 249 250 253 259 264 266 265 262 260 258 257 256 255 253 252 251 251 249 246 247 251 250 245 242 241 240 236 233 232 232 233 234 235 237 238 238 238 238 238
224 221 218 223 229 229 230 232 228 224 223 223 226 227 227 233 232 227 227 227 226 229 227 225 236 242 248 258 258 255 251 239 227 221 220 224 229 231 233 234 234 234 235 236 239 244 249 252 253 255 260 264 267 267 266 264 263 261 261 260 256 254 254 254 252 249 250 252 249 248 246 242 239 236 234 233 233 234 235 235 235 236 236 237 239 239
229 226 218 217 224 229 231 234 234 234 232 226 228 235 236 237 237 234 233 230 230 232 227 225 233 239 245 258 262 261 255 244 238 232 224 224 228 229 229 230 231 233 235 237 241 247 252 253 254 256 260 263 266 268 267 267 267 265 264 264 261 258 257 257 255 253 252 252 250 250 249 245 241 236 233 235 236 236 237 236 235 236 237 238 239 240
229 230 225 219 221 226 231 233 232 232 234 232 234 240 242 241 240 237 235 234 235 237 235 228 229 237 249 260 263 263 258 253 251 245 234 232 231 230 230 232 234 236 238 240 244 249 253 255 255 257 260 264 267 268 269 269 268 267 266 265 264 262 260 259 257 255 254 253 252 251 251 247 242 236 234 237 238 236 236 237 238 241 241 240 241 241
228 232 230 225 225 228 230 233 231 228 229 233 237 243 246 246 244 238 238 238 234 233 238 235 229 233 249 259 261 262 259 256 257 257 251 245 242 240 239 238 239 241 244 246 248 252 255 258 259 260 262 266 268 269 269 270 270 268 266 266 266 264 261 260 258 256 256 254 251 250 250 248 244 237 235 238 238 236 238 242 244 245 244 241 240 240
229 235 233 228 230 231 229 231 232 230 228 230 235 242 247 249 246 241 241 242 235 232 239 241 234 232 243 253 257 259 259 259 262 266 262 253 249 247 246 245 246 249 250 252 255 257 260 261 263 265 266 268 270 270 270 271 271 268 267 268 268 264 261 259 257 255 255 252 248 247 248 249 245 236 232 234 235 236 239 245 248 248 246 242 240 241
229 234 234 231 234 235 233 231 229 230 231 233 235 238 243 246 245 242 244 245 241 236 237 238 237 237 244 252 256 258 259 259 260 264 262 258 255 253 252 252 252 254 256 257 259 262 263 264 264 266 269 270 271 271 271 270 270 269 268 268 268 265 261 259 257 255 254 252 251 249 246 244 240 235 233 233 236 238 241 249 255 252 249 245 243 242
231 235 235 233 235 239 240 235 230 231 235 237 239 239 239 241 243 245 246 245 241 238 236 235 238 244 248 251 255 258 259 257 258 263 265 264 261 257 256 258 258 259 261 262 263 265 266 266 266 267 269 271 272 272 271 270 270 270 269 268 268 265 260 257 257 256 256 255 254 252 249 243 241 243 243 242 244 248 249 253 256 251 246 247 245 241
239 238 239 238 238 243 246 241 234 233 235 236 241 244 243 243 246 249 249 246 241 239 239 237 240 247 250 252 256 258 258 258 262 266 266 265 264 261 260 262 263 264 266 266 267 268 268 269 270 270 271 271 272 272 271 271 271 270 270 269 268 265 260 257 258 258 258 257 255 254 253 249 248 251 250 246 248 252 252 253 253 248 246 250 250 245
244 241 243 242 239 241 244 241 236 236 236 239 246 249 249 246 244 246 248 248 242 237 237 240 242 246 251 254 256 258 261 263 266 267 266 266 266 266 265 265 266 267 268 269 269 269 269 270 271 272 272 273 273 273 273 273 272 271 271 270 268 265 261 259 259 258 257 256 254 254 254 254 255 255 252 248 249 252 253 254 253 251 251 253 253 250
244 241 242 241 237 239 242 241 240 242 243 246 247 246 245 242 239 241 246 249 246 240 239 242 243 247 252 254 255 258 262 264 266 267 268 268 269 269 267 267 268 269 270 270 270 270 270 270 270 271 273 273 274 274 274 274 273 271 270 269 268 265 262 261 259 258 256 254 253 254 254 255 256 253 250 249 250 252 254 255 254 253 253 254 253 252
245 241 241 242 239 241 245 245 245 245 244 246 247 244 242 240 236 239 245 248 248 246 244 245 247 250 254 255 255 257 260 262 265 267 268 269 270 269 269 269 271 271 272 272 271 271 271 271 271 272 272 273 273 274 274 273 273 272 270 267 266 264 263 262 261 259 257 256 256 256 256 255 254 252 250 250 250 251 252 253 253 253 254 254 253 252
246 244 243 244 243 243 246 246 247 248 245 245 248 245 242 242 239 239 246 249 251 251 249 250 253 254 255 256 254 255 257 261 264 267 269 270 270 270 271 272 273 274 274 275 274 273 274 274 273 274 273 273 273 274 274 274 274 273 271 267 265 264 264 263 262 260 259 258 257 257 256 254 252 251 249 248 249 250 251 252 253 253 254 253 252 252
242 244 244 244 245 244 245 246 247 248 246 246 249 248 245 249 251 250 253 255 255 254 252 252 254 255 256 257 256 256 258 262 265 268 270 271 271 271 271 272 273 274 275 276 276 276 277 277 275 274 273 273 273 273 274 274 273 273 272 270 266 265 265 264 262 261 258 257 257 255 253 251 250 248 247 246 247 250 251 252 253 253 252 252 252 253
239 243 244 245 246 244 245 248 247 248 247 246 249 249 249 252 254 252 252 253 254 255 253 251 253 256 257 259 259 258 259 263 266 269 271 272 271 271 271 271 272 274 275 275 275 276 277 277 277 276 274 273 272 272 272 272 271 270 271 270 267 266 266 264 262 261 258 256 255 253 251 249 247 246 245 246 248 250 252 253 253 252 252 252 253 255
244 244 244 245 247 246 244 247 248 250 250 248 248 251 253 254 253 252 251 251 254 256 253 250 252 257 258 262 263 260 259 262 264 266 270 271 270 270 271 271 272 273 274 275 275 276 276 276 277 277 275 274 273 272 271 270 268 266 267 267 266 266 267 266 262 259 257 255 254 252 250 248 246 246 247 249 250 251 252 253 253 253 253 253 254 256
250 249 246 245 247 245 242 244 248 251 252 249 248 252 256 255 253 252 254 254 254 256 253 250 253 257 258 261 263 261 260 261 262 264 268 270 270 270 270 270 271 272 272 273 273 274 275 275 275 275 275 275 274 272 271 269 268 266 266 266 265 264 264 263 260 259 259 258 256 253 250 249 249 249 249 250 251 252 252 253 253 253 253 254 255 257
251 250 248 246 247 246 244 246 250 252 252 250 248 253 259 256 249 249 254 255 254 255 254 253 254 256 257 258 261 261 259 259 260 263 267 268 268 269 269 269 269 270 271 271 272 273 273 274 275 275 274 273 273 272 271 270 269 268 266 265 264 262 261 259 257 258 260 261 260 256 252 250 250 250 250 250 251 252 252 252 253 254 254 255 257 259
250 250 248 246 247 248 245 246 252 254 253 252 251 256 260 255 247 249 255 256 254 253 255 255 255 257 258 259 259 259 259 259 261 264 266 267 267 268 269 270 270 270 271 272 272 273 273 273 273 273 272 272 271 271 271 270 270 268 266 265 264 262 261 259 258 258 259 259 259 257 254 252 250 249 250 251 252 252 253 253 254 254 255 256 257 259
251 251 250 248 249 249 245 246 251 254 255 255 255 257 258 253 250 253 256 256 254 253 255 257 258 259 260 261 260 260 261 264 265 266 268 269 270 270 271 272 272 273 273 273 273 274 273 273 272 272 271 271 270 270 270 270 269 268 267 266 264 263 261 261 260 259 258 257 256 255 254 252 251 251 251 252 252 253 253 254 254 254 255 256 258 260
250 249 250 249 249 249 248 249 251 252 257 260 257 256 258 254 251 254 256 256 256 255 256 259 261 261 262 263 264 265 267 268 269 269 271 271 272 273 273 273 274 274 274 274 274 274 273 273 272 272 271 270 270 269 269 268 268 267 266 265 264 263 261 260 260 259 258 256 255 254 254 253 252 252 252 252 252 253 253 254 254 254 255 257 259 261
250 248 247 249 250 250 249 249 249 251 257 260 254 252 255 254 250 251 254 256 257 259 260 262 263 264 265 266 268 269 270 271 272 273 273 274 274 275 275 275 275 275 275 275 274 274 274 273 272 271 270 270 269 269 268 267 266 265 264 263 263 262 262 261 260 260 258 256 255 254 254 253 253 253 252 252 253 254 255 255 254 253 254 256 257 259
250 246 244 248 251 250 248 247 247 249 255 257 252 249 251 253 252 253 255 257 259 262 264 265 266 267 268 268 270 272 272 273 274 275 275 275 275 275 275 275 275 275 275 275 275 275 274 273 273 272 271 270 269 268 267 266 265 263 263 262 262 262 261 261 261 260 258 256 255 254 253 253 253 253 253 254 255 255 255 255 254 254 255 256 258 260
246 242 245 247 246 247 248 246 245 248 251 252 252 251 252 254 256 257 259 261 262 263 265 266 267 269 270 272 273 274 275 275 276 276 277 277 277 277 277 276 276 276 276 275 275 275 274 274 273 273 272 271 270 269 267 266 265 264 263 262 261 261 260 260 259 258 257 256 255 254 253 252 253 254 254 255 256 256 255 255 255 256 257 258 260 262
249 247 250 247 243 245 247 245 245 247 248 250 253 255 256 257 258 260 261 263 264 265 267 268 270 272 274 275 276 277 277 278 278 279 278 278 278 278 278 278 278 277 277 276 276 275 274 273 273 272 271 271 270 269 268 267 265 264 263 262 261 260 259 258 257 257 256 256 255 254 253 252 252 253 254 253 253 254 254 254 255 256 257 259 260 262
253 253 253 250 249 252 250 247 249 251 253 256 258 259 260 261 263 265 268 268 269 270 271 272 274 276 277 279 279 280 280 280 280 280 279 279 279 279 279 279 279 279 278 277 277 276 275 274 273 272 271 270 269 268 267 266 265 265 264 263 261 260 259 258 256 256 255 255 254 254 253 253 253 253 253 252 251 251 252 253 255 256 258 259 260 261
257 258 254 252 256 259 256 253 254 257 260 262 263 263 263 264 266 269 272 273 273 274 276 277 279 279 280 280 281 281 281 281 281 281 281 281 281 281 281 281 281 280 280 279 278 277 276 275 274 273 272 270 269 268 267 266 265 264 264 263 262 260 259 257 256 255 255 254 254 253 253 253 253 253 252 251 251 251 252 253 255 256 257 259 260 261
260 257 254 253 256 259 258 255 253 256 261 263 263 265 266 267 268 271 273 275 276 276 277 279 280 281 281 281 281 281 282 282 283 283 283 284 284 284 284 283 283 282 281 280 279 278 276 275 274 273 272 270 269 268 267 266 265 263 263 262 261 260 259 257 256 255 254 254 254 253 253 253 253 253 251 250 250 251 252 253 255 256 256 258 259 260
256 251 250 251 252 255 256 255 255 259 263 264 265 268 270 271 272 273 275 276 277 277 277 278 279 281 282 282 283 284 285 285 286 286 286 286 286 286 286 285 284 284 283 282 281 279 277 276 275 273 272 270 269 268 266 265 264 263 262 261 260 259 258 257 256 255 254 254 253 253 253 253 253 252 252 251 250 250 250 251 253 254 256 257 259 259